Location: Hoyos del Collado
(40.3594°N, 5.2003°W)
Time: 20:27:36
(UTC+00:00)

FENGYUN 1C DEB - Visible Passes

Search period start: 19 September 2024 00:00
Search period end: 29 September 2024 00:00
Orbit: 713 x 836 km, 98.9° (Epoch: 17 September)

Date Brightness Start Highest point End Pass type
(mag) Time Alt. Az. Time Alt. Az. Time Alt. Az.
19 Sep ? 01:28:53 11° NE 01:28:53 11° NE 01:29:59 10° NE visible
19 Sep ? 03:09:18 33° N 03:09:18 33° N 03:12:11 10° N visible
20 Sep ? 02:35:04 27° NNE 02:35:04 27° NNE 02:37:54 10° N visible
20 Sep ? 04:15:28 15° NW 04:15:28 15° NW 04:16:39 10° NW visible
21 Sep ? 02:00:48 18° NE 02:00:48 18° NE 02:03:05 10° NNE visible
21 Sep ? 03:41:12 23° NNW 03:41:12 23° NNW 03:43:13 10° NNW visible
22 Sep ? 03:06:56 27° N 03:06:56 27° N 03:09:15 10° N visible
23 Sep ? 02:32:37 23° NNE 02:32:37 23° NNE 02:34:51 10° N visible
23 Sep ? 04:13:02 13° NW 04:13:02 13° NW 04:13:45 10° NW visible
24 Sep ? 01:58:18 15° NE 01:58:18 15° NE 01:59:52 10° NNE visible
24 Sep ? 03:38:42 19° NNW 03:38:42 19° NNW 03:40:10 10° NNW visible
25 Sep ? 03:04:21 21° N 03:04:21 21° N 03:06:05 10° N visible
26 Sep ? 02:29:59 18° NNE 02:29:59 18° NNE 02:31:32 10° N visible
26 Sep ? 04:10:23 11° NW 04:10:23 11° NW 04:10:36 10° NW visible
27 Sep ? 01:55:36 13° NNE 01:55:36 13° NNE 01:56:23 10° NNE visible
27 Sep ? 03:36:00 15° NNW 03:36:00 15° NNW 03:36:52 10° NNW visible
28 Sep ? 03:01:35 16° N 03:01:35 16° N 03:02:40 10° N visible
